SAS67C EKCH-EGCC

Flight info

Callsign SAS67C
Flight time N/A
Altitude 38000
Route ODDON DCT LESRA DCT ROPAL DCT ERDOW UL975 LIBSO
Aircraft A319/M-SDE3FGHIRWY/LB1

Departure

Time 2026-04-26 09:38
Airport Copenhagen Kastrup Airport (EKCH)

Arrival

Time N/A
Airport Manchester Airport (EGCC)
Time Latitude Longitude Altitude Speed Heading
2026-04-26 09:14 55.62608 12.64899 24 ft 0 kts 91°
2026-04-26 09:23 55.62608 12.64898 24 ft 1 kts 91°
2026-04-26 09:24 55.62609 12.64871 24 ft 4 kts 96°
2026-04-26 09:24 55.62614 12.64825 24 ft 4 kts 112°
2026-04-26 09:24 55.62627 12.64788 26 ft 4 kts 151°
2026-04-26 09:24 55.62639 12.64779 27 ft 4 kts 191°
2026-04-26 09:25 55.62612 12.64770 26 ft 4 kts 188°
2026-04-26 09:25 55.62588 12.64769 24 ft 2 kts 179°
2026-04-26 09:25 55.62573 12.64769 24 ft 4 kts 179°
2026-04-26 09:25 55.62546 12.64770 25 ft 4 kts 179°
2026-04-26 09:26 55.62519 12.64771 24 ft 4 kts 179°
2026-04-26 09:26 55.62498 12.64772 24 ft 0 kts 179°
2026-04-26 09:30 55.62497 12.64772 24 ft 1 kts 179°
2026-04-26 09:30 55.62476 12.64774 25 ft 0 kts 177°
2026-04-26 09:32 55.62471 12.64775 26 ft 4 kts 177°
2026-04-26 09:32 55.62415 12.64780 27 ft 12 kts 177°
2026-04-26 09:33 55.62305 12.64787 24 ft 19 kts 178°
2026-04-26 09:33 55.62268 12.64790 24 ft 1 kts 178°
2026-04-26 09:33 55.62234 12.64784 24 ft 10 kts 193°
2026-04-26 09:33 55.62149 12.64701 26 ft 18 kts 212°
2026-04-26 09:34 55.62019 12.64548 24 ft 25 kts 212°
2026-04-26 09:34 55.61845 12.64527 25 ft 25 kts 169°
2026-04-26 09:34 55.61672 12.64550 24 ft 27 kts 197°
2026-04-26 09:34 55.61509 12.64374 25 ft 26 kts 213°
2026-04-26 09:35 55.61384 12.64229 25 ft 17 kts 213°
2026-04-26 09:35 55.61299 12.64131 25 ft 15 kts 213°
2026-04-26 09:35 55.61204 12.64024 26 ft 16 kts 212°
2026-04-26 09:35 55.61109 12.63915 25 ft 16 kts 214°
2026-04-26 09:36 55.61006 12.63796 24 ft 20 kts 213°
2026-04-26 09:36 55.60885 12.63655 24 ft 20 kts 213°
2026-04-26 09:36 55.60780 12.63618 24 ft 16 kts 139°
2026-04-26 09:36 55.60703 12.63773 24 ft 17 kts 127°
2026-04-26 09:37 55.60693 12.63893 28 ft 9 kts 40°
2026-04-26 09:37 55.60716 12.63929 29 ft 14 kts 41°
2026-04-26 09:37 55.60958 12.64304 24 ft 77 kts 41°
2026-04-26 09:37 55.61502 12.65142 24 ft 129 kts 41°
2026-04-26 09:38 55.62238 12.66299 395 ft 141 kts 39°
2026-04-26 09:38 55.62978 12.67452 974 ft 144 kts 36°
2026-04-26 09:38 55.63766 12.68645 1462 ft 158 kts 36°
2026-04-26 09:38 55.64655 12.70011 1810 ft 181 kts 37°
2026-04-26 09:39 55.65816 12.71078 2136 ft 201 kts
2026-04-26 09:39 55.67257 12.70644 2620 ft 224 kts 343°
2026-04-26 09:39 55.68718 12.69431 3298 ft 241 kts 319°
2026-04-26 09:39 55.69676 12.66976 4313 ft 249 kts 290°
2026-04-26 09:40 55.69831 12.63872 5349 ft 258 kts 270°
2026-04-26 09:40 55.69746 12.60717 6382 ft 262 kts 270°
2026-04-26 09:40 55.69639 12.57476 7378 ft 265 kts 270°
2026-04-26 09:40 55.69529 12.54193 8364 ft 268 kts 271°
2026-04-26 09:41 55.69425 12.50883 9359 ft 270 kts 272°
2026-04-26 09:41 55.69323 12.47542 10324 ft 273 kts 273°